Location: Unspecified
(58.9933°N, 5.6375°E)
Time: 19:53:13
(UTC+02:00)

Cosmos 2058 - Visible Passes

Search period start: 01 April 2015 00:00
Search period end: 11 April 2015 00:00
Orbit: 567 x 590 km, 82.5° (Epoch: 01 April)

Date Brightness Start Highest point End Pass type
(mag) Time Alt. Az. Time Alt. Az. Time Alt. Az.
01 Apr 5.6 21:33:35 10° NW 21:36:53 22° W 21:40:04 10° SW visible
02 Apr 5.8 21:38:32 10° NW 21:41:25 18° W 21:44:13 10° SW visible
03 Apr 6.0 21:43:35 10° NW 21:45:57 15° W 21:48:13 10° WSW visible
04 Apr 6.3 21:48:52 10° WNW 21:50:28 12° W 21:51:54 10° W visible
